Weather in Savino

Russia / Yaroslavl Oblast     57°37′38″N   38°29′37″E
temp.,
°C
wind,
m/s
gust,
m/s
humid.,
%
clouds,
%
prec.,
mm/h
press.,
hPa
HPBL,
m
31 july, sat
sat3100:00+16w259687 0.3 100294
03:00+16wsw2495100 0.3 100190
06:00+15sw2691100 0.0 1001147
09:00+20sw48744 0.8 1001698
12:00+25wsw8113692 0.4 10012754
15:00+22w61144100 0.4 10021827
18:00+23w6124772 0.0 10032199
21:00+18wsw311670 0.0 1004314
1 august, sun
sun100:00+16wsw412810 0.0 1006306
03:00+14sw38935 0.0 1007184
06:00+15sw388923 0.0 1008239
09:00+21sw4762100 0.0 1009826
12:00+23sw5851100 0.0 10091291
15:00+21sw5766100 0.2 1009938
18:00+21ssw597145 0.0 1008690
21:00+17ssw379195 0.0 1008271
2 august, mon
mon200:00+17ssw3109756 0.0 1008244
03:00+16ssw2698100 0.0 1008144
06:00+17ssw3794100 0.0 1008221
09:00+22ssw356979 0.0 1008528
12:00+26s45505 0.0 10071639
15:00+27sse454891 0.0 10051689
18:00+24se357486 0.5 1003304
21:00+20ese499450 1.3 1001203
3 august, tue
tue300:00+19sse3796100 1.6 1000134
03:00+19s51295100 3.3 1000538
06:00+17sw61194100 0.0 1000813
09:00+18w698272 0.2 1002854
12:00+20w5762100 0.3 10041374
15:00+21w5757100 0.3 10061460
18:00+22wsw574986 0.0 1006978
21:00+16wsw387231 0.0 1008156
4 august, wed
wed400:00+15wsw237633 0.0 100872
03:00+12wsw23884 0.0 101052
06:00+13w25865 0.0 1011147
09:00+19wnw34580 0.0 1012895
12:00+22w56395 0.0 10131825
15:00+23w46338 0.0 10132301
18:00+20wnw364249 0.0 1014841
21:00+15w225559 0.0 101617